TimeCDT,TemperatureF,Dew PointF,Humidity,Sea Level PressureIn,VisibilityMPH,Wind Direction,Wind SpeedMPH,Gust SpeedMPH,PrecipitationIn,Events,Conditions,WindDirDegrees,DateUTC
12:15 AM,53.6,44.6,72,30.02,10.0,Calm,Calm,-,N/A,,Clear,0,2012-09-20 05:15:00
12:35 AM,55.4,44.6,67,30.01,10.0,Calm,Calm,-,N/A,,Clear,0,2012-09-20 05:35:00
12:55 AM,53.6,44.6,72,30.01,10.0,Calm,Calm,-,N/A,,Clear,0,2012-09-20 05:55:00
1:15 AM,51.8,44.6,76,30.01,10.0,Calm,Calm,-,N/A,,Scattered Clouds,0,2012-09-20 06:15:00
1:35 AM,51.8,44.6,76,30.01,10.0,Calm,Calm,-,N/A,,Clear,0,2012-09-20 06:35:00
1:55 AM,51.8,44.6,76,30.01,10.0,Calm,Calm,-,N/A,,Scattered Clouds,0,2012-09-20 06:55:00
2:15 AM,50.0,44.6,82,30.02,10.0,Calm,Calm,-,N/A,,Clear,0,2012-09-20 07:15:00
2:35 AM,50.0,44.6,82,30.02,10.0,Calm,Calm,-,N/A,,Scattered Clouds,0,2012-09-20 07:35:00
2:55 AM,48.2,42.8,82,30.02,10.0,Calm,Calm,-,N/A,,Clear,0,2012-09-20 07:55:00
3:15 AM,48.2,42.8,82,30.02,10.0,Calm,Calm,-,N/A,,Scattered Clouds,0,2012-09-20 08:15:00
3:35 AM,50.0,44.6,82,30.02,10.0,Calm,Calm,-,N/A,,Scattered Clouds,0,2012-09-20 08:35:00
3:55 AM,48.2,42.8,82,30.02,10.0,Calm,Calm,-,N/A,,Clear,0,2012-09-20 08:55:00
4:15 AM,46.4,41.0,81,30.02,10.0,Calm,Calm,-,N/A,,Scattered Clouds,0,2012-09-20 09:15:00
4:35 AM,46.4,41.0,81,30.02,10.0,Calm,Calm,-,N/A,,Scattered Clouds,0,2012-09-20 09:35:00
5:15 AM,46.4,41.0,81,30.03,10.0,Calm,Calm,-,N/A,,Scattered Clouds,0,2012-09-20 10:15:00
5:35 AM,46.4,39.2,76,30.03,10.0,Calm,Calm,-,N/A,,Scattered Clouds,0,2012-09-20 10:35:00
5:55 AM,44.6,39.2,81,30.03,10.0,Calm,Calm,-,N/A,,Scattered Clouds,0,2012-09-20 10:55:00
6:15 AM,46.4,39.2,76,30.03,10.0,Calm,Calm,-,N/A,,Scattered Clouds,0,2012-09-20 11:15:00
6:35 AM,46.4,41.0,81,30.04,10.0,Calm,Calm,-,N/A,,Scattered Clouds,0,2012-09-20 11:35:00
6:55 AM,46.4,39.2,76,30.04,10.0,Calm,Calm,-,N/A,,Scattered Clouds,0,2012-09-20 11:55:00
7:15 AM,46.4,39.2,76,30.04,10.0,Calm,Calm,-,N/A,,Scattered Clouds,0,2012-09-20 12:15:00
7:35 AM,46.4,41.0,81,30.05,10.0,Calm,Calm,-,N/A,,Clear,0,2012-09-20 12:35:00
7:55 AM,48.2,42.8,82,30.05,10.0,Calm,Calm,-,N/A,,Clear,0,2012-09-20 12:55:00
8:15 AM,50.0,44.6,82,30.05,10.0,Calm,Calm,-,N/A,,Clear,0,2012-09-20 13:15:00
8:35 AM,51.8,44.6,76,30.06,10.0,Calm,Calm,-,N/A,,Clear,0,2012-09-20 13:35:00
8:55 AM,53.6,46.4,77,30.06,10.0,Calm,Calm,-,N/A,,Clear,0,2012-09-20 13:55:00
9:15 AM,55.4,46.4,72,30.06,10.0,Calm,Calm,-,N/A,,Clear,0,2012-09-20 14:15:00
9:35 AM,59.0,44.6,59,30.07,10.0,Calm,Calm,-,N/A,,Clear,0,2012-09-20 14:35:00
9:55 AM,62.6,44.6,52,30.07,10.0,Calm,Calm,-,N/A,,Clear,0,2012-09-20 14:55:00
10:15 AM,64.4,41.0,42,30.07,10.0,Calm,Calm,-,N/A,,Clear,0,2012-09-20 15:15:00
10:35 AM,66.2,33.8,30,30.07,10.0,Calm,Calm,-,N/A,,Clear,0,2012-09-20 15:35:00
11:20 AM,69.8,28.4,21,30.08,10.0,West,5.8,-,N/A,,Clear,270,2012-09-20 16:20:00
11:40 AM,69.8,30.2,23,30.09,10.0,West,4.6,-,N/A,,Clear,270,2012-09-20 16:40:00
12:00 PM,71.6,28.4,20,30.08,10.0,West,3.5,-,N/A,,Clear,280,2012-09-20 17:00:00
12:20 PM,71.6,23.0,16,30.08,10.0,WNW,6.9,-,N/A,,Clear,290,2012-09-20 17:20:00
12:40 PM,71.6,21.2,15,30.08,10.0,WNW,6.9,-,N/A,,Clear,290,2012-09-20 17:40:00
1:00 PM,73.4,21.2,14,30.07,10.0,NW,6.9,-,N/A,,Clear,320,2012-09-20 18:00:00
1:20 PM,73.4,23.0,15,30.07,10.0,NW,9.2,-,N/A,,Clear,320,2012-09-20 18:20:00
2:00 PM,73.4,24.8,16,30.05,10.0,WNW,4.6,-,N/A,,Clear,300,2012-09-20 19:00:00
2:20 PM,73.4,26.6,18,30.03,10.0,NW,3.5,-,N/A,,Clear,320,2012-09-20 19:20:00
2:40 PM,73.4,26.6,18,30.03,10.0,WNW,4.6,-,N/A,,Clear,290,2012-09-20 19:40:00
2:55 PM,73.4,24.8,16,30.02,10.0,West,4.6,-,N/A,,Clear,260,2012-09-20 19:55:00
3:15 PM,75.2,26.6,17,30.01,10.0,NW,5.8,-,N/A,,Clear,310,2012-09-20 20:15:00
3:35 PM,75.2,24.8,15,30.01,10.0,West,5.8,-,N/A,,Clear,260,2012-09-20 20:35:00
3:55 PM,75.2,26.6,17,30.00,10.0,West,8.1,-,N/A,,Clear,270,2012-09-20 20:55:00
4:15 PM,77.0,30.2,18,29.99,10.0,NW,5.8,-,N/A,,Clear,320,2012-09-20 21:15:00
4:35 PM,75.2,32.0,21,29.99,10.0,NW,5.8,-,N/A,,Clear,310,2012-09-20 21:35:00
4:55 PM,75.2,33.8,22,29.99,10.0,NNW,5.8,-,N/A,,Clear,340,2012-09-20 21:55:00
5:15 PM,75.2,35.6,24,29.98,10.0,North,3.5,-,N/A,,Clear,360,2012-09-20 22:15:00
5:35 PM,73.4,35.6,25,29.98,10.0,North,6.9,-,N/A,,Clear,10,2012-09-20 22:35:00
5:55 PM,73.4,37.4,27,29.98,10.0,North,4.6,-,N/A,,Clear,10,2012-09-20 22:55:00
6:15 PM,71.6,42.8,35,29.98,10.0,NNE,3.5,-,N/A,,Clear,30,2012-09-20 23:15:00
6:35 PM,69.8,42.8,38,29.98,10.0,Calm,Calm,-,N/A,,Clear,0,2012-09-20 23:35:00
6:55 PM,69.8,44.6,40,29.98,10.0,Calm,Calm,-,N/A,,Clear,0,2012-09-20 23:55:00
7:15 PM,66.2,46.4,49,29.99,10.0,Calm,Calm,-,N/A,,Clear,0,2012-09-21 00:15:00
7:35 PM,66.2,48.2,52,29.99,10.0,Calm,Calm,-,N/A,,Clear,0,2012-09-21 00:35:00
7:55 PM,64.4,48.2,56,29.99,10.0,Calm,Calm,-,N/A,,Clear,0,2012-09-21 00:55:00
8:15 PM,64.4,48.2,56,29.99,10.0,Calm,Calm,-,N/A,,Scattered Clouds,0,2012-09-21 01:15:00
8:35 PM,62.6,50.0,63,30.00,10.0,Calm,Calm,-,N/A,,Scattered Clouds,0,2012-09-21 01:35:00
8:55 PM,62.6,50.0,63,29.99,10.0,Calm,Calm,-,N/A,,Scattered Clouds,0,2012-09-21 01:55:00
9:15 PM,62.6,50.0,63,29.99,10.0,Calm,Calm,-,N/A,,Scattered Clouds,0,2012-09-21 02:15:00
9:35 PM,60.8,48.2,63,29.99,10.0,Calm,Calm,-,N/A,,Clear,0,2012-09-21 02:35:00
9:55 PM,62.6,50.0,63,29.99,10.0,SE,3.5,-,N/A,,Scattered Clouds,140,2012-09-21 02:55:00
10:15 PM,60.8,50.0,68,29.99,10.0,Calm,Calm,-,N/A,,Scattered Clouds,0,2012-09-21 03:15:00
10:35 PM,60.8,48.2,63,29.99,10.0,Calm,Calm,-,N/A,,Scattered Clouds,0,2012-09-21 03:35:00
10:55 PM,60.8,50.0,68,29.99,10.0,Calm,Calm,-,N/A,,Scattered Clouds,0,2012-09-21 03:55:00
11:15 PM,60.8,50.0,68,29.99,10.0,Calm,Calm,-,N/A,,Clear,0,2012-09-21 04:15:00
11:35 PM,59.0,50.0,72,29.98,10.0,Calm,Calm,-,N/A,,Clear,0,2012-09-21 04:35:00
11:55 PM,59.0,48.2,67,29.97,10.0,Calm,Calm,-,N/A,,Clear,0,2012-09-21 04:55:00